^^
Station Historical Data
Daily Summary for January 14, 2018 Units:  Both    English   Metric
« Previous Day
Next Day »
Daily Weekly Monthly Yearly Custom
  High: Low: Average:
Temperature: TemperatureC °F /  -17.8 °C -5.9 °F /  -21.1 °C -3.3 °F /  -19.6 °C
Dew Point: DewpointC °F /  -17.8 °C -7.6 °F /  -22 °C -5.4 °F /  -20.8 °C
Humidity: Humidity% 81% 85%
Wind Speed: WindSpeedKMHmph /  0km/h - 0.4mph /  0.6km/h
Wind Gust: WindSpeedGustKMHmph /  0km/h - -
Wind- - ESE
Pressure: PressurehPa in /  0 hPa 1035.4 in /  35058.6 hPa -
Precipitation: 0.0 in /  0 mm    
Historical Graphs
 
 
Tabular Data for January 14, 2018
Time Temperature Dew Point Pressure Wind Wind Speed Wind Gust Humidity Rainfall Rate (Hourly) solar Conditions
TemperatureC °F /  -17.8 °C DewpointC °F /  -17.8 °C PressurehPain /  0hPa Calm     Humidity% HourlyPrecipMMin /  0mm SoftwareType W/m2 Conditions
00:01 -2.4 °F /  -19.1 °C -4.0 °F /  -20 °C 1041.2in /  35255hPa Calm     89% 0.0in /  0mm WeatherDisplay:10.37 W/m2 FEW
00:06 -2.4 °F /  -19.1 °C -4.0 °F /  -20 °C 1041.2in /  35255hPa Calm     89% 0.0in /  0mm WeatherDisplay:10.37 W/m2 FEW
00:11 -2.4 °F /  -19.1 °C -4.0 °F /  -20 °C 1041.2in /  35255hPa Calm     89% 0.0in /  0mm WeatherDisplay:10.37 W/m2 FEW
00:16 -2.5 °F /  -19.2 °C -4.1 °F /  -20.1 °C 1041.2in /  35255hPa Calm     89% 0.0in /  0mm WeatherDisplay:10.37 W/m2 FEW
00:21 -2.5 °F /  -19.2 °C -4.1 °F /  -20.1 °C 1041.2in /  35255hPa Calm     89% 0.0in /  0mm WeatherDisplay:10.37 W/m2 FEW
00:26 -2.4 °F /  -19.1 °C -4.0 °F /  -20 °C 1041.2in /  35255hPa Calm     89% 0.0in /  0mm WeatherDisplay:10.37 W/m2 FEW
00:31 -2.4 °F /  -19.1 °C -4.2 °F /  -20.1 °C 1041.2in /  35255hPa Calm     88% 0.0in /  0mm WeatherDisplay:10.37 W/m2 FEW
00:36 -2.4 °F /  -19.1 °C -4.2 °F /  -20.1 °C 1041.5in /  35265.2hPa Calm     88% 0.0in /  0mm WeatherDisplay:10.37 W/m2 FEW
00:41 -2.4 °F /  -19.1 °C -4.2 °F /  -20.1 °C 1041.2in /  35255hPa Calm     88% 0.0in /  0mm WeatherDisplay:10.37 W/m2 FEW
00:45 -2.4 °F /  -19.1 °C -4.2 °F /  -20.1 °C 1041.5in /  35265.2hPa Calm     88% 0.0in /  0mm WeatherDisplay:10.37 W/m2 FEW
00:51 -2.4 °F /  -19.1 °C -4.2 °F /  -20.1 °C 1041.2in /  35255hPa Calm     88% 0.0in /  0mm WeatherDisplay:10.37 W/m2 FEW
00:59 -2.5 °F /  -19.2 °C -4.4 °F /  -20.2 °C 1041.2in /  35255hPa Calm     87% 0.0in /  0mm WeatherDisplay:10.37 W/m2 FEW
01:04 -2.5 °F /  -19.2 °C -4.4 °F /  -20.2 °C 1041.2in /  35255hPa East 0.3mph /  0.5km/h 1.9mph /  3.1km/h 87% 0.0in /  0mm WeatherDisplay:10.37 W/m2 FEW
01:10 -2.5 °F /  -19.2 °C -4.5 °F /  -20.3 °C 1041.2in /  35255hPa Calm     86% 0.0in /  0mm WeatherDisplay:10.37 W/m2 FEW
01:19 -2.5 °F /  -19.2 °C -4.5 °F /  -20.3 °C 1041.2in /  35255hPa Calm     86% 0.0in /  0mm WeatherDisplay:10.37 W/m2 FEW
01:24 -2.5 °F /  -19.2 °C -4.5 °F /  -20.3 °C 1041.2in /  35255hPa Calm     86% 0.0in /  0mm WeatherDisplay:10.37 W/m2 FEW
01:29 -2.5 °F /  -19.2 °C -4.5 °F /  -20.3 °C 1041.2in /  35255hPa Calm     86% 0.0in /  0mm WeatherDisplay:10.37 W/m2 FEW
01:35 -2.5 °F /  -19.2 °C -4.5 °F /  -20.3 °C 1041.2in /  35255hPa Calm     86% 0.0in /  0mm WeatherDisplay:10.37 W/m2 FEW
01:40 -2.5 °F /  -19.2 °C -4.5 °F /  -20.3 °C 1041.2in /  35255hPa Calm     86% 0.0in /  0mm WeatherDisplay:10.37 W/m2 FEW
01:45 -2.5 °F /  -19.2 °C -4.5 °F /  -20.3 °C 1041.2in /  35255hPa Calm     86% 0.0in /  0mm WeatherDisplay:10.37 W/m2 FEW
01:56 -2.6 °F /  -19.2 °C -4.7 °F /  -20.4 °C 1041.2in /  35255hPa Calm     85% 0.0in /  0mm WeatherDisplay:10.37 W/m2 FEW
02:01 -2.6 °F /  -19.2 °C -4.9 °F /  -20.5 °C 1041.2in /  35255hPa Calm     84% 0.0in /  0mm WeatherDisplay:10.37 W/m2 FEW
02:14 -2.6 °F /  -19.2 °C -4.7 °F /  -20.4 °C 1040.9in /  35244.9hPa Calm     85% 0.0in /  0mm WeatherDisplay:10.37 W/m2 FEW
02:30 -2.6 °F /  -19.2 °C -4.9 °F /  -20.5 °C 1040.9in /  35244.9hPa Calm     84% 0.0in /  0mm WeatherDisplay:10.37 W/m2 FEW
02:35 -2.7 °F /  -19.3 °C -5.0 °F /  -20.6 °C 1040.9in /  35244.9hPa Calm     84% 0.0in /  0mm WeatherDisplay:10.37 W/m2 FEW
02:37 -2.7 °F /  -19.3 °C -5.2 °F /  -20.7 °C 1040.9in /  35244.9hPa Calm     83% 0.0in /  0mm WeatherDisplay:10.37 W/m2 FEW
02:42 -2.7 °F /  -19.3 °C -5.0 °F /  -20.6 °C 1040.9in /  35244.9hPa Calm     84% 0.0in /  0mm WeatherDisplay:10.37 W/m2 FEW
02:47 -2.7 °F /  -19.3 °C -5.1 °F /  -20.6 °C 1040.9in /  35244.9hPa Calm     84% 0.0in /  0mm WeatherDisplay:10.37 W/m2 FEW
02:52 -2.7 °F /  -19.3 °C -5.1 °F /  -20.6 °C 1040.9in /  35244.9hPa Calm     84% 0.0in /  0mm WeatherDisplay:10.37 W/m2 FEW
02:57 -2.7 °F /  -19.3 °C -5.1 °F /  -20.6 °C 1040.9in /  35244.9hPa Calm     84% 0.0in /  0mm WeatherDisplay:10.37 W/m2 FEW
03:02 -2.7 °F /  -19.3 °C -5.1 °F /  -20.6 °C 1040.9in /  35244.9hPa Calm     84% 0.0in /  0mm WeatherDisplay:10.37 W/m2 FEW
03:07 -2.7 °F /  -19.3 °C -5.2 °F /  -20.7 °C 1040.9in /  35244.9hPa Calm     83% 0.0in /  0mm WeatherDisplay:10.37 W/m2 FEW
03:17 -2.7 °F /  -19.3 °C -5.1 °F /  -20.6 °C 1040.5in /  35231.3hPa Calm     84% 0.0in /  0mm WeatherDisplay:10.37 W/m2 FEW
03:22 -2.7 °F /  -19.3 °C -5.1 °F /  -20.6 °C 1040.5in /  35231.3hPa Calm     84% 0.0in /  0mm WeatherDisplay:10.37 W/m2 FEW
03:27 -2.7 °F /  -19.3 °C -5.1 °F /  -20.6 °C 1040.5in /  35231.3hPa Calm     84% 0.0in /  0mm WeatherDisplay:10.37 W/m2 FEW
03:36 -2.7 °F /  -19.3 °C -5.1 °F /  -20.6 °C 1040.5in /  35231.3hPa Calm     84% 0.0in /  0mm WeatherDisplay:10.37 W/m2 FEW
03:41 -2.7 °F /  -19.3 °C -5.1 °F /  -20.6 °C 1040.5in /  35231.3hPa Calm     84% 0.0in /  0mm WeatherDisplay:10.37 W/m2 FEW
03:46 -2.7 °F /  -19.3 °C -5.1 °F /  -20.6 °C 1040.5in /  35231.3hPa Calm     84% 0.0in /  0mm WeatherDisplay:10.37 W/m2 FEW
03:51 -2.7 °F /  -19.3 °C -5.1 °F /  -20.6 °C 1040.5in /  35231.3hPa Calm     84% 0.0in /  0mm WeatherDisplay:10.37 W/m2 FEW
04:01 -2.7 °F /  -19.3 °C -4.9 °F /  -20.5 °C 1040.5in /  35231.3hPa Calm     85% 0.0in /  0mm WeatherDisplay:10.37 W/m2 FEW
04:06 -2.7 °F /  -19.3 °C -4.9 °F /  -20.5 °C 1040.5in /  35231.3hPa Calm     85% 0.0in /  0mm WeatherDisplay:10.37 W/m2 FEW
04:11 -2.8 °F /  -19.3 °C -4.9 °F /  -20.5 °C 1040.5in /  35231.3hPa Calm     85% 0.0in /  0mm WeatherDisplay:10.37 W/m2 FEW
04:17 -2.8 °F /  -19.3 °C -4.9 °F /  -20.5 °C 1040.5in /  35231.3hPa Calm     85% 0.0in /  0mm WeatherDisplay:10.37 W/m2 FEW
04:25 -2.8 °F /  -19.3 °C -4.9 °F /  -20.5 °C 1040.5in /  35231.3hPa Calm     85% 0.0in /  0mm WeatherDisplay:10.37 W/m2 FEW
04:30 -2.8 °F /  -19.3 °C -4.9 °F /  -20.5 °C 1040.5in /  35231.3hPa Calm     85% 0.0in /  0mm WeatherDisplay:10.37 W/m2 FEW
04:35 -2.8 °F /  -19.3 °C -4.9 °F /  -20.5 °C 1040.5in /  35231.3hPa Calm     85% 0.0in /  0mm WeatherDisplay:10.37 W/m2 FEW
04:45 -2.8 °F /  -19.3 °C -5.1 °F /  -20.6 °C 1040.2in /  35221.2hPa Calm     84% 0.0in /  0mm WeatherDisplay:10.37 W/m2 FEW
04:50 -2.8 °F /  -19.3 °C -5.1 °F /  -20.6 °C 1040.2in /  35221.2hPa Calm     84% 0.0in /  0mm WeatherDisplay:10.37 W/m2 FEW
04:55 -2.8 °F /  -19.3 °C -4.9 °F /  -20.5 °C 1040.2in /  35221.2hPa Calm     85% 0.0in /  0mm WeatherDisplay:10.37 W/m2 FEW
05:00 -2.8 °F /  -19.3 °C -4.9 °F /  -20.5 °C 1040.2in /  35221.2hPa Calm     85% 0.0in /  0mm WeatherDisplay:10.37 W/m2 FEW
05:05 -2.7 °F /  -19.3 °C -4.9 °F /  -20.5 °C 1040.2in /  35221.2hPa Calm     85% 0.0in /  0mm WeatherDisplay:10.37 W/m2 FEW
05:11 -2.8 °F /  -19.3 °C -4.9 °F /  -20.5 °C 1040.2in /  35221.2hPa Calm     85% 0.0in /  0mm WeatherDisplay:10.37 W/m2 FEW
05:16 -2.7 °F /  -19.3 °C -4.9 °F /  -20.5 °C 1040.2in /  35221.2hPa Calm     85% 0.0in /  0mm WeatherDisplay:10.37 W/m2 FEW
05:21 -2.8 °F /  -19.3 °C -4.9 °F /  -20.5 °C 1040.2in /  35221.2hPa Calm     85% 0.0in /  0mm WeatherDisplay:10.37 W/m2 FEW
05:31 -2.8 °F /  -19.3 °C -4.9 °F /  -20.5 °C 1040.2in /  35221.2hPa Calm     85% 0.0in /  0mm WeatherDisplay:10.37 W/m2 FEW
05:38 -2.8 °F /  -19.3 °C -5.1 °F /  -20.6 °C 1040.2in /  35221.2hPa Calm     84% 0.0in /  0mm WeatherDisplay:10.37 W/m2 FEW
05:47 -2.8 °F /  -19.3 °C -4.9 °F /  -20.5 °C 1039.8in /  35207.6hPa Calm     85% 0.0in /  0mm WeatherDisplay:10.37 W/m2 FEW
05:54 -2.8 °F /  -19.3 °C -4.9 °F /  -20.5 °C 1039.8in /  35207.6hPa Calm     85% 0.0in /  0mm WeatherDisplay:10.37 W/m2 FEW
05:59 -2.8 °F /  -19.3 °C -4.9 °F /  -20.5 °C 1039.8in /  35207.6hPa Calm     85% 0.0in /  0mm WeatherDisplay:10.37 W/m2 FEW
06:04 -2.8 °F /  -19.3 °C -5.1 °F /  -20.6 °C 1039.8in /  35207.6hPa Calm     84% 0.0in /  0mm WeatherDisplay:10.37 W/m2 FEW
06:09 -2.8 °F /  -19.3 °C -5.1 °F /  -20.6 °C 1039.8in /  35207.6hPa Calm     84% 0.0in /  0mm WeatherDisplay:10.37 W/m2 FEW
06:14 -2.8 °F /  -19.3 °C -5.1 °F /  -20.6 °C 1039.8in /  35207.6hPa Calm     84% 0.0in /  0mm WeatherDisplay:10.37 W/m2 FEW
06:22 -2.8 °F /  -19.3 °C -4.9 °F /  -20.5 °C 1039.8in /  35207.6hPa Calm     85% 0.0in /  0mm WeatherDisplay:10.37 W/m2 FEW
06:27 -2.8 °F /  -19.3 °C -4.9 °F /  -20.5 °C 1039.8in /  35207.6hPa Calm     85% 0.0in /  0mm WeatherDisplay:10.37 W/m2 FEW
06:32 -2.8 °F /  -19.3 °C -4.9 °F /  -20.5 °C 1039.8in /  35207.6hPa Calm     85% 0.0in /  0mm WeatherDisplay:10.37 W/m2 FEW
06:39 -2.8 °F /  -19.3 °C -4.9 °F /  -20.5 °C 1039.8in /  35207.6hPa Calm     85% 0.0in /  0mm WeatherDisplay:10.37 W/m2 FEW
06:50 -2.8 °F /  -19.3 °C -4.9 °F /  -20.5 °C 1039.5in /  35197.5hPa Calm     85% 0.0in /  0mm WeatherDisplay:10.37 W/m2 FEW
07:00 -2.8 °F /  -19.3 °C -4.9 °F /  -20.5 °C 1039.5in /  35197.5hPa Calm     85% 0.0in /  0mm WeatherDisplay:10.37 W/m2 FEW
07:14 -2.7 °F /  -19.3 °C -4.9 °F /  -20.5 °C 1039.5in /  35197.5hPa Calm     85% 0.0in /  0mm WeatherDisplay:10.37 W/m2 FEW
07:19 -2.7 °F /  -19.3 °C -4.9 °F /  -20.5 °C 1039.5in /  35197.5hPa Calm     85% 0.0in /  0mm WeatherDisplay:10.37 W/m2 FEW
07:24 -2.7 °F /  -19.3 °C -4.9 °F /  -20.5 °C 1039.5in /  35197.5hPa Calm     85% 0.0in /  0mm WeatherDisplay:10.37 W/m2 FEW
07:33 -2.7 °F /  -19.3 °C -4.8 °F /  -20.4 °C 1039.5in /  35197.5hPa Calm     85% 0.0in /  0mm WeatherDisplay:10.37 W/m2 FEW
07:38 -2.7 °F /  -19.3 °C -4.8 °F /  -20.4 °C 1039.2in /  35187.3hPa Calm     85% 0.0in /  0mm WeatherDisplay:10.37 W/m2 FEW
07:46 -2.7 °F /  -19.3 °C -5.0 °F /  -20.6 °C 1039.2in /  35187.3hPa Calm     84% 0.0in /  0mm WeatherDisplay:10.37 W/m2 FEW
07:59 -2.7 °F /  -19.3 °C -5.0 °F /  -20.6 °C 1039.2in /  35187.3hPa Calm     84% 0.0in /  0mm WeatherDisplay:10.37 W/m2 FEW
08:10 -2.7 °F /  -19.3 °C -5.0 °F /  -20.6 °C 1039.2in /  35187.3hPa Calm     84% 0.0in /  0mm WeatherDisplay:10.37 W/m2 FEW
08:15 -2.7 °F /  -19.3 °C -5.0 °F /  -20.6 °C 1039.2in /  35187.3hPa East 1.6mph /  2.6km/h 3.7mph /  6km/h 84% 0.0in /  0mm WeatherDisplay:10.37 W/m2 FEW
08:23 -2.6 °F /  -19.2 °C -4.9 °F /  -20.5 °C 1039.2in /  35187.3hPa Calm     84% 0.0in /  0mm WeatherDisplay:10.37 W/m2 FEW
08:28 -2.6 °F /  -19.2 °C -4.9 °F /  -20.5 °C 1039.2in /  35187.3hPa Calm     84% 0.0in /  0mm WeatherDisplay:10.37 W/m2 FEW
08:38 -2.6 °F /  -19.2 °C -4.9 °F /  -20.5 °C 1039.2in /  35187.3hPa Calm     84% 0.0in /  0mm WeatherDisplay:10.37 W/m2 FEW
08:43 -2.6 °F /  -19.2 °C -4.9 °F /  -20.5 °C 1039.2in /  35187.3hPa Calm     84% 0.0in /  0mm WeatherDisplay:10.37 W/m2 FEW
08:49 -2.6 °F /  -19.2 °C -3.8 °F /  -19.9 °C 1039.2in /  35187.3hPa Calm     91% 0.0in /  0mm WeatherDisplay:10.37 W/m2 FEW
08:55 -2.6 °F /  -19.2 °C -4.9 °F /  -20.5 °C 1039.2in /  35187.3hPa Calm     84% 0.0in /  0mm WeatherDisplay:10.37 W/m2 FEW
09:00 -2.6 °F /  -19.2 °C -3.9 °F /  -19.9 °C 1039.2in /  35187.3hPa Calm     91% 0.0in /  0mm WeatherDisplay:10.37 W/m2 FEW
09:05 -2.6 °F /  -19.2 °C -4.8 °F /  -20.4 °C 1039.2in /  35187.3hPa Calm     85% 0.0in /  0mm WeatherDisplay:10.37 W/m2 FEW
09:10 -2.6 °F /  -19.2 °C -3.9 °F /  -19.9 °C 1039.2in /  35187.3hPa Calm     91% 0.0in /  0mm WeatherDisplay:10.37 W/m2 FEW
09:15 -2.6 °F /  -19.2 °C -3.9 °F /  -19.9 °C 1039.2in /  35187.3hPa Calm     91% 0.0in /  0mm WeatherDisplay:10.37 W/m2 FEW
09:20 -2.6 °F /  -19.2 °C -4.9 °F /  -20.5 °C 1039.2in /  35187.3hPa Calm     84% 0.0in /  0mm WeatherDisplay:10.37 W/m2 FEW
09:25 -2.6 °F /  -19.2 °C -4.9 °F /  -20.5 °C 1039.2in /  35187.3hPa Calm     84% 0.0in /  0mm WeatherDisplay:10.37 W/m2 FEW
09:30 -2.6 °F /  -19.2 °C -4.9 °F /  -20.5 °C 1039.2in /  35187.3hPa Calm   1.9mph /  3.1km/h 84% 0.0in /  0mm WeatherDisplay:10.37 W/m2 FEW
09:38 -2.6 °F /  -19.2 °C -4.9 °F /  -20.5 °C 1039.2in /  35187.3hPa Calm     84% 0.0in /  0mm WeatherDisplay:10.37 W/m2 FEW
09:43 -2.6 °F /  -19.2 °C -3.8 °F /  -19.9 °C 1039.2in /  35187.3hPa Calm     91% 0.0in /  0mm WeatherDisplay:10.37 W/m2 FEW
09:51 -2.6 °F /  -19.2 °C -4.9 °F /  -20.5 °C 1039.2in /  35187.3hPa Calm     84% 0.0in /  0mm WeatherDisplay:10.37 W/m2 FEW
09:59 -2.6 °F /  -19.2 °C -4.9 °F /  -20.5 °C 1039.5in /  35197.5hPa Calm     84% 0.0in /  0mm WeatherDisplay:10.37 W/m2 FEW
10:09 -2.6 °F /  -19.2 °C -4.9 °F /  -20.5 °C 1039.5in /  35197.5hPa Calm     84% 0.0in /  0mm WeatherDisplay:10.37 W/m2 FEW
10:23 -2.6 °F /  -19.2 °C -5.1 °F /  -20.6 °C 1039.5in /  35197.5hPa Calm     83% 0.0in /  0mm WeatherDisplay:10.37 W/m2 FEW
10:28 -2.6 °F /  -19.2 °C -4.9 °F /  -20.5 °C 1039.5in /  35197.5hPa Calm     84% 0.0in /  0mm WeatherDisplay:10.37 W/m2 FEW
10:33 -2.6 °F /  -19.2 °C -4.9 °F /  -20.5 °C 1039.5in /  35197.5hPa Calm     84% 0.0in /  0mm WeatherDisplay:10.37 W/m2 FEW
10:38 -2.6 °F /  -19.2 °C -5.1 °F /  -20.6 °C 1039.5in /  35197.5hPa Calm     83% 0.0in /  0mm WeatherDisplay:10.37 W/m2 FEW
10:43 -2.6 °F /  -19.2 °C -5.1 °F /  -20.6 °C 1039.5in /  35197.5hPa Calm     83% 0.0in /  0mm WeatherDisplay:10.37 W/m2 FEW
10:48 -2.6 °F /  -19.2 °C -5.1 °F /  -20.6 °C 1039.5in /  35197.5hPa East 0.3mph /  0.5km/h 3.7mph /  6km/h 83% 0.0in /  0mm WeatherDisplay:10.37 W/m2 FEW
10:54 -2.6 °F /  -19.2 °C -5.1 °F /  -20.6 °C 1039.5in /  35197.5hPa Calm     83% 0.0in /  0mm WeatherDisplay:10.37 W/m2 FEW
11:16 -2.5 °F /  -19.2 °C -5.0 °F /  -20.6 °C 1039.5in /  35197.5hPa East 1.8mph /  2.9km/h 5.6mph /  9km/h 83% 0.0in /  0mm WeatherDisplay:10.37 W/m2 FEW
11:25 -2.5 °F /  -19.2 °C -5.2 °F /  -20.7 °C 1039.5in /  35197.5hPa Calm     82% 0.0in /  0mm WeatherDisplay:10.37 W/m2 FEW
11:30 -2.5 °F /  -19.2 °C -5.2 °F /  -20.7 °C 1039.5in /  35197.5hPa Calm     82% 0.0in /  0mm WeatherDisplay:10.37 W/m2 FEW
11:37 -2.5 °F /  -19.2 °C -5.2 °F /  -20.7 °C 1039.5in /  35197.5hPa Calm     82% 0.0in /  0mm WeatherDisplay:10.37 W/m2 FEW
11:49 -2.5 °F /  -19.2 °C -5.2 °F /  -20.7 °C 1039.2in /  35187.3hPa East 3.1mph /  5km/h 5.6mph /  9km/h 82% 0.0in /  0mm WeatherDisplay:10.37 W/m2 FEW
12:00 -2.5 °F /  -19.2 °C -5.3 °F /  -20.7 °C 1039.2in /  35187.3hPa Calm     81% 0.0in /  0mm WeatherDisplay:10.37 W/m2 FEW
12:05 -2.5 °F /  -19.2 °C -5.2 °F /  -20.7 °C 1039.2in /  35187.3hPa Calm     82% 0.0in /  0mm WeatherDisplay:10.37 W/m2 FEW
12:10 -2.5 °F /  -19.2 °C -5.2 °F /  -20.7 °C 1039.2in /  35187.3hPa Calm     82% 0.0in /  0mm WeatherDisplay:10.37 W/m2 FEW
12:20 -2.5 °F /  -19.2 °C -5.2 °F /  -20.7 °C 1039.2in /  35187.3hPa Calm     82% 0.0in /  0mm WeatherDisplay:10.37 W/m2 FEW
12:29 -2.4 °F /  -19.1 °C -5.1 °F /  -20.6 °C 1039.2in /  35187.3hPa Calm     82% 0.0in /  0mm WeatherDisplay:10.37 W/m2 FEW
14:27 -2.4 °F /  -19.1 °C -4.8 °F /  -20.4 °C 1038.1in /  35150.1hPa Calm     84% 0.0in /  0mm WeatherDisplay:10.37 W/m2 CLR
14:33 -2.4 °F /  -19.1 °C -4.8 °F /  -20.4 °C 1038.1in /  35150.1hPa Calm     84% 0.0in /  0mm WeatherDisplay:10.37 W/m2 FEW
14:38 -2.4 °F /  -19.1 °C -4.6 °F /  -20.3 °C 1038.1in /  35150.1hPa Calm     85% 0.0in /  0mm WeatherDisplay:10.37 W/m2 FEW
14:43 -2.4 °F /  -19.1 °C -4.6 °F /  -20.3 °C 1038.1in /  35150.1hPa Calm     85% 0.0in /  0mm WeatherDisplay:10.37 W/m2 FEW
14:48 -2.4 °F /  -19.1 °C -4.6 °F /  -20.3 °C 1038.1in /  35150.1hPa Calm     85% 0.0in /  0mm WeatherDisplay:10.37 W/m2 FEW
14:53 -2.5 °F /  -19.2 °C -4.7 °F /  -20.4 °C 1038.1in /  35150.1hPa Calm     85% 0.0in /  0mm WeatherDisplay:10.37 W/m2 FEW
15:05 -2.5 °F /  -19.2 °C -4.8 °F /  -20.4 °C 1038.1in /  35150.1hPa Calm     84% 0.0in /  0mm WeatherDisplay:10.37 W/m2 FEW
15:10 -2.6 °F /  -19.2 °C -4.9 °F /  -20.5 °C 1038.1in /  35150.1hPa Calm     84% 0.0in /  0mm WeatherDisplay:10.37 W/m2 FEW
15:15 -2.6 °F /  -19.2 °C -4.9 °F /  -20.5 °C 1038.1in /  35150.1hPa Calm     84% 0.0in /  0mm WeatherDisplay:10.37 W/m2 FEW
15:20 -2.6 °F /  -19.2 °C -4.9 °F /  -20.5 °C 1038.1in /  35150.1hPa Calm     84% 0.0in /  0mm WeatherDisplay:10.37 W/m2 FEW
15:25 -2.6 °F /  -19.2 °C -4.9 °F /  -20.5 °C 1038.1in /  35150.1hPa Calm     84% 0.0in /  0mm WeatherDisplay:10.37 W/m2 FEW
15:30 -2.6 °F /  -19.2 °C -4.9 °F /  -20.5 °C 1038.1in /  35150.1hPa Calm     84% 0.0in /  0mm WeatherDisplay:10.37 W/m2 FEW
15:44 -2.6 °F /  -19.2 °C -4.9 °F /  -20.5 °C 1038.1in /  35150.1hPa Calm     84% 0.0in /  0mm WeatherDisplay:10.37 W/m2 FEW
15:49 -2.6 °F /  -19.2 °C -4.9 °F /  -20.5 °C 1038.1in /  35150.1hPa ESE 0.6mph /  1km/h 1.6mph /  2.6km/h 84% 0.0in /  0mm WeatherDisplay:10.37 W/m2 FEW
15:59 -2.7 °F /  -19.3 °C -5.2 °F /  -20.7 °C 1037.8in /  35139.9hPa Calm   1.9mph /  3.1km/h 83% 0.0in /  0mm WeatherDisplay:10.37 W/m2 FEW
16:13 -2.7 °F /  -19.3 °C -5.2 °F /  -20.7 °C 1037.8in /  35139.9hPa Calm     83% 0.0in /  0mm WeatherDisplay:10.37 W/m2 FEW
16:18 -2.7 °F /  -19.3 °C -5.2 °F /  -20.7 °C 1037.8in /  35139.9hPa Calm   1.9mph /  3.1km/h 83% 0.0in /  0mm WeatherDisplay:10.37 W/m2 FEW
16:23 -2.7 °F /  -19.3 °C -5.2 °F /  -20.7 °C 1037.8in /  35139.9hPa ESE 1.3mph /  2.1km/h   83% 0.0in /  0mm WeatherDisplay:10.37 W/m2 FEW
16:28 -2.8 °F /  -19.3 °C -5.3 °F /  -20.7 °C 1037.8in /  35139.9hPa Calm     83% 0.0in /  0mm WeatherDisplay:10.37 W/m2 FEW
16:39 -2.8 °F /  -19.3 °C -5.2 °F /  -20.7 °C 1037.8in /  35139.9hPa ESE 1.3mph /  2.1km/h 3.2mph /  5.1km/h 84% 0.0in /  0mm WeatherDisplay:10.37 W/m2 FEW
16:44 -2.8 °F /  -19.3 °C -5.2 °F /  -20.7 °C 1037.8in /  35139.9hPa ESE 0.3mph /  0.5km/h   84% 0.0in /  0mm WeatherDisplay:10.37 W/m2 FEW
16:49 -2.9 °F /  -19.4 °C -5.2 °F /  -20.7 °C 1037.8in /  35139.9hPa Calm     84% 0.0in /  0mm WeatherDisplay:10.37 W/m2 FEW
16:54 -2.9 °F /  -19.4 °C -5.2 °F /  -20.7 °C 1037.8in /  35139.9hPa Calm     84% 0.0in /  0mm WeatherDisplay:10.37 W/m2 FEW
17:11 -2.9 °F /  -19.4 °C -5.3 °F /  -20.7 °C 1037.5in /  35129.8hPa Calm     84% 0.0in /  0mm WeatherDisplay:10.37 W/m2 FEW
17:21 -3.1 °F /  -19.5 °C -5.4 °F /  -20.8 °C 1037.5in /  35129.8hPa ESE 1.3mph /  2.1km/h 5.6mph /  9km/h 84% 0.0in /  0mm WeatherDisplay:10.37 W/m2 FEW
17:26 -3.1 °F /  -19.5 °C -5.4 °F /  -20.8 °C 1037.5in /  35129.8hPa Calm     84% 0.0in /  0mm WeatherDisplay:10.37 W/m2 FEW
17:31 -3.1 °F /  -19.5 °C -5.4 °F /  -20.8 °C 1037.5in /  35129.8hPa SSE 3.1mph /  5km/h 11.1mph /  17.9km/h 84% 0.0in /  0mm WeatherDisplay:10.37 W/m2 FEW
17:36 -3.1 °F /  -19.5 °C -5.4 °F /  -20.8 °C 1037.5in /  35129.8hPa SE 4.5mph /  7.2km/h 7.4mph /  11.9km/h 84% 0.0in /  0mm WeatherDisplay:10.37 W/m2 FEW
17:43 -3.1 °F /  -19.5 °C -5.4 °F /  -20.8 °C 1037.5in /  35129.8hPa Calm   5.6mph /  9km/h 84% 0.0in /  0mm WeatherDisplay:10.37 W/m2 FEW
17:49 -3.2 °F /  -19.6 °C -5.3 °F /  -20.7 °C 1037.5in /  35129.8hPa ESE 1.9mph /  3.1km/h 9.3mph /  15km/h 85% 0.0in /  0mm WeatherDisplay:10.37 W/m2 FEW
17:54 -3.2 °F /  -19.6 °C -5.4 °F /  -20.8 °C 1037.5in /  35129.8hPa ESE 5.0mph /  8km/h 7.4mph /  11.9km/h 85% 0.0in /  0mm WeatherDisplay:10.37 W/m2 FEW
17:59 -3.2 °F /  -19.6 °C -5.2 °F /  -20.7 °C 1037.5in /  35129.8hPa SE 4.0mph /  6.4km/h 7.4mph /  11.9km/h 86% 0.0in /  0mm WeatherDisplay:10.37 W/m2 FEW
18:04 -3.3 °F /  -19.6 °C -5.3 °F /  -20.7 °C 1037.1in /  35116.2hPa Calm   5.6mph /  9km/h 86% 0.0in /  0mm WeatherDisplay:10.37 W/m2 FEW
18:09 -3.3 °F /  -19.6 °C -5.3 °F /  -20.7 °C 1037.5in /  35129.8hPa SE 1.1mph /  1.8km/h 1.9mph /  3.1km/h 86% 0.0in /  0mm WeatherDisplay:10.37 W/m2 FEW
18:14 -3.4 °F /  -19.7 °C -5.2 °F /  -20.7 °C 1037.5in /  35129.8hPa SE 0.6mph /  1km/h   87% 0.0in /  0mm WeatherDisplay:10.37 W/m2 FEW
18:21 -3.5 °F /  -19.7 °C -5.3 °F /  -20.7 °C 1037.1in /  35116.2hPa SE 5.5mph /  8.9km/h 11.3mph /  18.2km/h 87% 0.0in /  0mm WeatherDisplay:10.37 W/m2 FEW
18:26 -3.7 °F /  -19.8 °C -5.5 °F /  -20.8 °C 1037.1in /  35116.2hPa Calm     87% 0.0in /  0mm WeatherDisplay:10.37 W/m2 FEW
18:34 -3.9 °F /  -19.9 °C -5.7 °F /  -20.9 °C 1037.5in /  35129.8hPa ESE 0.8mph /  1.3km/h 5.6mph /  9km/h 87% 0.0in /  0mm WeatherDisplay:10.37 W/m2 FEW
18:40 -4.1 °F /  -20.1 °C -5.9 °F /  -21.1 °C 1037.1in /  35116.2hPa Calm     87% 0.0in /  0mm WeatherDisplay:10.37 W/m2 FEW
18:45 -4.2 °F /  -20.1 °C -6.0 °F /  -21.1 °C 1037.1in /  35116.2hPa SE 1.1mph /  1.8km/h 7.4mph /  11.9km/h 87% 0.0in /  0mm WeatherDisplay:10.37 W/m2 FEW
18:50 -4.3 °F /  -20.2 °C -5.9 °F /  -21.1 °C 1037.1in /  35116.2hPa Calm     88% 0.0in /  0mm WeatherDisplay:10.37 W/m2 FEW
19:05 -4.6 °F /  -20.3 °C -6.3 °F /  -21.3 °C 1037.1in /  35116.2hPa Calm     88% 0.0in /  0mm WeatherDisplay:10.37 W/m2 FEW
19:14 -4.8 °F /  -20.4 °C -6.4 °F /  -21.3 °C 1036.8in /  35106hPa Calm     89% 0.0in /  0mm WeatherDisplay:10.37 W/m2 FEW
19:24 -5.2 °F /  -20.7 °C -6.7 °F /  -21.5 °C 1036.8in /  35106hPa Calm     89% 0.0in /  0mm WeatherDisplay:10.37 W/m2 FEW
19:29 -5.3 °F /  -20.7 °C -6.9 °F /  -21.6 °C 1036.8in /  35106hPa Calm     89% 0.0in /  0mm WeatherDisplay:10.37 W/m2 FEW
19:34 -5.4 °F /  -20.8 °C -6.8 °F /  -21.6 °C 1036.8in /  35106hPa Calm     90% 0.0in /  0mm WeatherDisplay:10.37 W/m2 FEW
19:39 -5.5 °F /  -20.8 °C -6.9 °F /  -21.6 °C 1036.8in /  35106hPa Calm     90% 0.0in /  0mm WeatherDisplay:10.37 W/m2 FEW
19:44 -5.6 °F /  -20.9 °C -7.0 °F /  -21.7 °C 1036.8in /  35106hPa Calm     90% 0.0in /  0mm WeatherDisplay:10.37 W/m2 FEW
19:49 -5.7 °F /  -20.9 °C -7.1 °F /  -21.7 °C 1036.8in /  35106hPa Calm     90% 0.0in /  0mm WeatherDisplay:10.37 W/m2 FEW
19:59 -5.8 °F /  -21 °C -7.2 °F /  -21.8 °C 1036.8in /  35106hPa Calm     90% 0.0in /  0mm WeatherDisplay:10.37 W/m2 FEW
20:05 -5.8 °F /  -21 °C -7.2 °F /  -21.8 °C 1036.8in /  35106hPa Calm     90% 0.0in /  0mm WeatherDisplay:10.37 W/m2 FEW
20:10 -5.8 °F /  -21 °C -7.0 °F /  -21.7 °C 1036.8in /  35106hPa ESE 1.4mph /  2.3km/h 5.6mph /  9km/h 91% 0.0in /  0mm WeatherDisplay:10.37 W/m2 FEW
20:15 -5.7 °F /  -20.9 °C -6.9 °F /  -21.6 °C 1036.8in /  35106hPa Calm     91% 0.0in /  0mm WeatherDisplay:10.37 W/m2 FEW
20:20 -5.7 °F /  -20.9 °C -6.9 °F /  -21.6 °C 1036.8in /  35106hPa Calm     91% 0.0in /  0mm WeatherDisplay:10.37 W/m2 FEW
20:25 -5.6 °F /  -20.9 °C -6.8 °F /  -21.6 °C 1036.8in /  35106hPa SE 0.6mph /  1km/h 4.8mph /  7.7km/h 91% 0.0in /  0mm WeatherDisplay:10.37 W/m2 FEW
20:30 -5.6 °F /  -20.9 °C -6.9 °F /  -21.6 °C 1036.5in /  35095.9hPa ESE 0.3mph /  0.5km/h 5.6mph /  9km/h 90% 0.0in /  0mm WeatherDisplay:10.37 W/m2 FEW
20:37 -5.5 °F /  -20.8 °C -6.9 °F /  -21.6 °C 1036.5in /  35095.9hPa Calm   5.6mph /  9km/h 90% 0.0in /  0mm WeatherDisplay:10.37 W/m2 FEW
20:42 -5.4 °F /  -20.8 °C -6.9 °F /  -21.6 °C 1036.5in /  35095.9hPa Calm     89% 0.0in /  0mm WeatherDisplay:10.37 W/m2 FEW
20:47 -5.4 °F /  -20.8 °C -6.9 °F /  -21.6 °C 1036.5in /  35095.9hPa Calm   7.4mph /  11.9km/h 89% 0.0in /  0mm WeatherDisplay:10.37 W/m2 FEW
20:52 -5.4 °F /  -20.8 °C -6.9 °F /  -21.6 °C 1036.5in /  35095.9hPa Calm     89% 0.0in /  0mm WeatherDisplay:10.37 W/m2 FEW
20:57 -5.4 °F /  -20.8 °C -6.9 °F /  -21.6 °C 1036.5in /  35095.9hPa Calm     89% 0.0in /  0mm WeatherDisplay:10.37 W/m2 FEW
21:04 -5.3 °F /  -20.7 °C -6.9 °F /  -21.6 °C 1036.5in /  35095.9hPa SE 4.0mph /  6.4km/h 5.6mph /  9km/h 89% 0.0in /  0mm WeatherDisplay:10.37 W/m2 FEW
21:10 -5.3 °F /  -20.7 °C -7.0 °F /  -21.7 °C 1036.5in /  35095.9hPa Calm     88% 0.0in /  0mm WeatherDisplay:10.37 W/m2 FEW
21:15 -5.3 °F /  -20.7 °C -7.0 °F /  -21.7 °C 1036.5in /  35095.9hPa SE 2.7mph /  4.3km/h 5.6mph /  9km/h 88% 0.0in /  0mm WeatherDisplay:10.37 W/m2 FEW
21:27 -5.4 °F /  -20.8 °C -7.1 °F /  -21.7 °C 1036.5in /  35095.9hPa Calm     88% 0.0in /  0mm WeatherDisplay:10.37 W/m2 FEW
21:33 -5.4 °F /  -20.8 °C -7.2 °F /  -21.8 °C 1036.1in /  35082.3hPa SE 3.1mph /  5km/h 5.6mph /  9km/h 87% 0.0in /  0mm WeatherDisplay:10.37 W/m2 FEW
21:45 -5.4 °F /  -20.8 °C -7.2 °F /  -21.8 °C 1036.1in /  35082.3hPa SE 1.0mph /  1.6km/h 5.6mph /  9km/h 87% 0.0in /  0mm WeatherDisplay:10.37 W/m2 FEW
21:50 -5.4 °F /  -20.8 °C -7.2 °F /  -21.8 °C 1036.1in /  35082.3hPa SE 1.8mph /  2.9km/h 3.7mph /  6km/h 87% 0.0in /  0mm WeatherDisplay:10.37 W/m2 FEW
21:55 -5.4 °F /  -20.8 °C -7.2 °F /  -21.8 °C 1036.1in /  35082.3hPa SE 1.8mph /  2.9km/h 7.4mph /  11.9km/h 87% 0.0in /  0mm WeatherDisplay:10.37 W/m2 FEW
22:05 -5.5 °F /  -20.8 °C -7.3 °F /  -21.8 °C 1036.5in /  35095.9hPa Calm     87% 0.0in /  0mm WeatherDisplay:10.37 W/m2 FEW
22:10 -5.5 °F /  -20.8 °C -7.2 °F /  -21.8 °C 1036.1in /  35082.3hPa Calm     88% 0.0in /  0mm WeatherDisplay:10.37 W/m2 FEW
22:15 -5.5 °F /  -20.8 °C -7.2 °F /  -21.8 °C 1036.1in /  35082.3hPa ESE 0.3mph /  0.5km/h 3.7mph /  6km/h 88% 0.0in /  0mm WeatherDisplay:10.37 W/m2 FEW
22:20 -5.5 °F /  -20.8 °C -7.2 °F /  -21.8 °C 1036.1in /  35082.3hPa ESE 0.5mph /  0.8km/h 5.6mph /  9km/h 88% 0.0in /  0mm WeatherDisplay:10.37 W/m2 FEW
22:25 -5.5 °F /  -20.8 °C -7.2 °F /  -21.8 °C 1036.1in /  35082.3hPa ESE 2.6mph /  4.2km/h 5.6mph /  9km/h 88% 0.0in /  0mm WeatherDisplay:10.37 W/m2 FEW
22:30 -5.5 °F /  -20.8 °C -7.2 °F /  -21.8 °C 1036.1in /  35082.3hPa Calm     88% 0.0in /  0mm WeatherDisplay:10.37 W/m2 FEW
22:38 -5.5 °F /  -20.8 °C -7.0 °F /  -21.7 °C 1036.1in /  35082.3hPa Calm     89% 0.0in /  0mm WeatherDisplay:10.37 W/m2 FEW
22:43 -5.5 °F /  -20.8 °C -7.0 °F /  -21.7 °C 1036.1in /  35082.3hPa Calm     89% 0.0in /  0mm WeatherDisplay:10.37 W/m2 FEW
22:48 -5.5 °F /  -20.8 °C -7.2 °F /  -21.8 °C 1035.8in /  35072.2hPa SE 1.4mph /  2.3km/h 5.6mph /  9km/h 88% 0.0in /  0mm WeatherDisplay:10.37 W/m2 FEW
22:53 -5.6 °F /  -20.9 °C -7.3 °F /  -21.8 °C 1035.8in /  35072.2hPa Calm     88% 0.0in /  0mm WeatherDisplay:10.37 W/m2 FEW
23:07 -5.7 °F /  -20.9 °C -7.3 °F /  -21.8 °C 1035.8in /  35072.2hPa Calm     88% 0.0in /  0mm WeatherDisplay:10.37 W/m2 FEW
23:12 -5.7 °F /  -20.9 °C -7.4 °F /  -21.9 °C 1035.8in /  35072.2hPa Calm   5.6mph /  9km/h 88% 0.0in /  0mm WeatherDisplay:10.37 W/m2 FEW
23:22 -5.8 °F /  -21 °C -7.4 °F /  -21.9 °C 1035.4in /  35058.6hPa Calm     88% 0.0in /  0mm WeatherDisplay:10.37 W/m2 FEW
23:28 -5.8 °F /  -21 °C -7.5 °F /  -21.9 °C 1035.4in /  35058.6hPa SSW 2.9mph /  4.7km/h 9.3mph /  15km/h 88% 0.0in /  0mm WeatherDisplay:10.37 W/m2 FEW
23:33 -5.9 °F /  -21.1 °C -7.6 °F /  -22 °C 1035.4in /  35058.6hPa ESE 4.0mph /  6.4km/h 6.4mph /  10.3km/h 88% 0.0in /  0mm WeatherDisplay:10.37 W/m2 FEW
23:38 -5.9 °F /  -21.1 °C -7.6 °F /  -22 °C 1035.4in /  35058.6hPa SE 0.3mph /  0.5km/h 4.8mph /  7.7km/h 88% 0.0in /  0mm WeatherDisplay:10.37 W/m2 FEW
23:43 -5.9 °F /  -21.1 °C -7.6 °F /  -22 °C 1035.4in /  35058.6hPa SSE 5.6mph /  9km/h 13.0mph /  20.9km/h 88% 0.0in /  0mm WeatherDisplay:10.37 W/m2 FEW
Tuulensuunkaari, Veikkola, Suomi
Compliments of Weather Underground - 2.25 mb